Location: Gad�tanya
(48.0500°N, 20.8500°E)
Time: 11:55:03
(UTC+00:00)

TSX-5 - Pass Details

Date: 05 July 2020
Orbit: 404 x 1328 km, 68.9° (Epoch: 14 August)

Event Time Altitude Azimuth Distance (km) Brightness Sun altitude
Rises 21:31:17 0° 322° (NW) 2,438 8.4 -17.5°
Reaches altitude 10° 21:33:17 10° 314° (NW) 1,631 7.1 -17.6°
Maximum altitude 21:36:37 39° 244° (WSW) 800 4.5 -17.8°
Enters shadow 21:37:40 32° 207° (SSW) 949 4.6 -17.8°
